Meteo orario Abdul-Gazy

Oggi, 20 Giugno, Domenica

Tempo Temperatura Precipitazioni Vento Pressione Umidità
00:00 +23°C° 0 mm 7 m/s 757 mm Hg 47%
01:00 +23°C° 0 mm 6 m/s 757 mm Hg 50%
02:00 +23°C° 0 mm 6 m/s 756 mm Hg 52%
03:00 +23°C° 0 mm 6 m/s 756 mm Hg 55%
04:00 +24°C° 0 mm 6 m/s 756 mm Hg 56%
05:00 +24°C° 0 mm 6 m/s 755 mm Hg 57%
06:00 +26°C° 0 mm 7 m/s 755 mm Hg 58%
07:00 +29°C° 0 mm 8 m/s 755 mm Hg 49%
08:00 +32°C° 0 mm 9 m/s 755 mm Hg 39%
09:00 +37°C° 0 mm 10 m/s 754 mm Hg 27%
10:00 +38°C° 0 mm 11 m/s 754 mm Hg 24%
11:00 +39°C° 0 mm 11 m/s 754 mm Hg 22%
12:00 +41°C° 0 mm 12 m/s 754 mm Hg 20%
13:00 +39°C° 0 mm 12 m/s 754 mm Hg 21%
14:00 +39°C° 0 mm 13 m/s 754 mm Hg 21%
15:00 +38°C° 0 mm 13 m/s 754 mm Hg 22%
16:00 +36°C° 0 mm 12 m/s 754 mm Hg 26%
17:00 +33°C° 0 mm 11 m/s 755 mm Hg 30%
18:00 +31°C° 0 mm 9 m/s 755 mm Hg 34%
19:00 +29°C° 0 mm 9 m/s 755 mm Hg 34%
20:00 +28°C° 0 mm 9 m/s 756 mm Hg 35%
21:00 +27°C° 0 mm 8 m/s 756 mm Hg 35%
22:00 +27°C° 0 mm 8 m/s 756 mm Hg 37%
23:00 +27°C° 0 mm 7 m/s 755 mm Hg 40%

Domani, 21 Giugno, Lunedi

Tempo Temperatura Precipitazioni Vento Pressione Umidità
00:00 +26°C° 0 mm 7 m/s 755 mm Hg 42%
01:00 +26°C° 0 mm 7 m/s 755 mm Hg 42%
02:00 +26°C° 0 mm 7 m/s 755 mm Hg 41%
03:00 +26°C° 0 mm 7 m/s 755 mm Hg 41%
04:00 +26°C° 0 mm 7 m/s 755 mm Hg 42%
05:00 +27°C° 0 mm 7 m/s 755 mm Hg 43%
06:00 +27°C° 0 mm 7 m/s 755 mm Hg 45%
07:00 +29°C° 0 mm 9 m/s 755 mm Hg 37%
08:00 +33°C° 0 mm 10 m/s 755 mm Hg 29%
09:00 +36°C° 0 mm 11 m/s 755 mm Hg 21%
10:00 +37°C° 0 mm 12 m/s 755 mm Hg 18%
11:00 +38°C° 0 mm 12 m/s 755 mm Hg 15%
12:00 +41°C° 0 mm 12 m/s 754 mm Hg 13%
13:00 +39°C° 0 mm 13 m/s 754 mm Hg 14%
14:00 +39°C° 0 mm 13 m/s 754 mm Hg 14%
15:00 +39°C° 0 mm 13 m/s 754 mm Hg 15%
16:00 +37°C° 0 mm 12 m/s 754 mm Hg 18%
17:00 +36°C° 0 mm 11 m/s 754 mm Hg 20%
18:00 +33°C° 0 mm 10 m/s 754 mm Hg 22%
19:00 +32°C° 0 mm 10 m/s 754 mm Hg 26%
20:00 +29°C° 0 mm 9 m/s 755 mm Hg 29%
21:00 +28°C° 0 mm 8 m/s 755 mm Hg 33%
22:00 +28°C° 0 mm 8 m/s 755 mm Hg 33%
23:00 +28°C° 0 mm 8 m/s 755 mm Hg 34%

Dopodomani, 22 Giugno, Martedi

Tempo Temperatura Precipitazioni Vento Pressione Umidità
00:00 +27°C° 0 mm 7 m/s 755 mm Hg 34%
01:00 +27°C° 0 mm 7 m/s 754 mm Hg 36%
02:00 +27°C° 0 mm 7 m/s 754 mm Hg 37%
03:00 +27°C° 0 mm 7 m/s 754 mm Hg 39%
04:00 +27°C° 0 mm 7 m/s 754 mm Hg 39%
05:00 +28°C° 0 mm 7 m/s 754 mm Hg 39%
06:00 +28°C° 0 mm 7 m/s 754 mm Hg 39%
07:00 +30°C° 0 mm 7 m/s 754 mm Hg 33%
08:00 +33°C° 0 mm 8 m/s 754 mm Hg 27%
09:00 +35°C° 0 mm 9 m/s 754 mm Hg 22%
10:00 +38°C° 0 mm 10 m/s 754 mm Hg 18%
11:00 +41°C° 0 mm 11 m/s 754 mm Hg 14%
12:00 +43°C° 0 mm 12 m/s 754 mm Hg 11%
13:00 +43°C° 0 mm 12 m/s 754 mm Hg 11%
14:00 +43°C° 0 mm 12 m/s 754 mm Hg 12%
15:00 +42°C° 0 mm 12 m/s 753 mm Hg 12%
16:00 +41°C° 0 mm 12 m/s 754 mm Hg 15%
17:00 +39°C° 0 mm 11 m/s 754 mm Hg 17%
18:00 +37°C° 0 mm 10 m/s 754 mm Hg 20%
19:00 +36°C° 0 mm 10 m/s 754 mm Hg 24%
20:00 +33°C° 0 mm 9 m/s 754 mm Hg 29%
21:00 +32°C° 0 mm 9 m/s 754 mm Hg 33%
22:00 +31°C° 0 mm 8 m/s 754 mm Hg 36%
23:00 +31°C° 0 mm 8 m/s 754 mm Hg 39%

23 Giugno, Mercoledi

Tempo Temperatura Precipitazioni Vento Pressione Umidità
00:00 +29°C° 0 mm 7 m/s 754 mm Hg 41%
01:00 +29°C° 0 mm 7 m/s 754 mm Hg 42%
02:00 +29°C° 0 mm 7 m/s 754 mm Hg 43%
03:00 +28°C° 0 mm 7 m/s 754 mm Hg 43%
04:00 +28°C° 0 mm 7 m/s 754 mm Hg 43%
05:00 +28°C° 0 mm 7 m/s 754 mm Hg 42%
06:00 +29°C° 0 mm 8 m/s 755 mm Hg 41%
07:00 +31°C° 0 mm 8 m/s 755 mm Hg 38%
08:00 +33°C° 0 mm 9 m/s 755 mm Hg 34%
09:00 +34°C° 0 mm 9 m/s 755 mm Hg 31%
10:00 +37°C° 0 mm 9 m/s 755 mm Hg 27%
11:00 +38°C° 0 mm 9 m/s 755 mm Hg 23%
12:00 +40°C° 0 mm 9 m/s 755 mm Hg 18%
13:00 +40°C° 0 mm 10 m/s 755 mm Hg 19%
14:00 +40°C° 0 mm 10 m/s 755 mm Hg 19%
15:00 +41°C° 0 mm 11 m/s 755 mm Hg 19%
16:00 +38°C° 0 mm 10 m/s 755 mm Hg 22%
17:00 +35°C° 0 mm 9 m/s 756 mm Hg 25%
18:00 +34°C° 0 mm 9 m/s 756 mm Hg 29%
19:00 +32°C° 0 mm 8 m/s 756 mm Hg 32%
20:00 +29°C° 0 mm 7 m/s 756 mm Hg 35%
21:00 +27°C° 0 mm 6 m/s 757 mm Hg 39%
22:00 +27°C° 0 mm 6 m/s 756 mm Hg 40%
23:00 +26°C° 0 mm 5 m/s 756 mm Hg 42%

24 Giugno, Giovedi

Tempo Temperatura Precipitazioni Vento Pressione Umidità
00:00 +26°C° 0 mm 5 m/s 756 mm Hg 43%
01:00 +25°C° 0 mm 4 m/s 756 mm Hg 46%
02:00 +25°C° 0 mm 4 m/s 756 mm Hg 49%
03:00 +24°C° 0 mm 3 m/s 756 mm Hg 52%
04:00 +25°C° 0 mm 3 m/s 756 mm Hg 52%
05:00 +26°C° 0 mm 3 m/s 756 mm Hg 52%
06:00 +26°C° 0 mm 2 m/s 756 mm Hg 52%
07:00 +29°C° 0 mm 3 m/s 756 mm Hg 43%
08:00 +32°C° 0 mm 4 m/s 756 mm Hg 33%
09:00 +35°C° 0 mm 5 m/s 755 mm Hg 24%
10:00 +38°C° 0 mm 6 m/s 755 mm Hg 20%
11:00 +40°C° 0 mm 7 m/s 755 mm Hg 16%
12:00 +43°C° 0 mm 8 m/s 754 mm Hg 12%
13:00 +43°C° 0 mm 9 m/s 754 mm Hg 12%
14:00 +44°C° 0 mm 10 m/s 754 mm Hg 11%
15:00 +44°C° 0 mm 10 m/s 753 mm Hg 11%
16:00 +42°C° 0 mm 10 m/s 754 mm Hg 13%
17:00 +40°C° 0 mm 9 m/s 754 mm Hg 16%
18:00 +38°C° 0 mm 9 m/s 754 mm Hg 18%
19:00 +35°C° 0 mm 8 m/s 754 mm Hg 24%
20:00 +32°C° 0 mm 6 m/s 755 mm Hg 29%
21:00 +29°C° 0 mm 5 m/s 755 mm Hg 34%
22:00 +28°C° 0 mm 5 m/s 755 mm Hg 39%
23:00 +27°C° 0 mm 4 m/s 755 mm Hg 44%

25 Giugno, Venerdi

Tempo Temperatura Precipitazioni Vento Pressione Umidità
00:00 +26°C° 0 mm 4 m/s 754 mm Hg 49%
01:00 +26°C° 0 mm 3 m/s 754 mm Hg 51%
02:00 +25°C° 0 mm 3 m/s 754 mm Hg 54%
03:00 +25°C° 0 mm 2 m/s 754 mm Hg 56%
04:00 +25°C° 0 mm 2 m/s 754 mm Hg 54%
05:00 +26°C° 0 mm 2 m/s 754 mm Hg 52%
06:00 +27°C° 0 mm 1 m/s 754 mm Hg 51%
07:00 +29°C° 0 mm 1 m/s 754 mm Hg 45%
08:00 +31°C° 0 mm 1 m/s 754 mm Hg 39%
09:00 +33°C° 0 mm 1 m/s 754 mm Hg 34%
10:00 +34°C° 0 mm 1 m/s 753 mm Hg 31%
11:00 +36°C° 0 mm 1 m/s 753 mm Hg 29%
12:00 +37°C° 0 mm 1 m/s 753 mm Hg 27%
13:00 +39°C° 0 mm 1 m/s 752 mm Hg 26%
14:00 +39°C° 0 mm 1 m/s 752 mm Hg 25%
15:00 +40°C° 0 mm 2 m/s 752 mm Hg 24%
16:00 +40°C° 0 mm 3 m/s 752 mm Hg 25%
17:00 +39°C° 0 mm 3 m/s 752 mm Hg 26%
18:00 +40°C° 0 mm 4 m/s 752 mm Hg 26%
19:00 +37°C° 0 mm 5 m/s 752 mm Hg 33%
20:00 +35°C° 0 mm 5 m/s 752 mm Hg 39%
21:00 +32°C° 0 mm 6 m/s 753 mm Hg 46%
22:00 +30°C° 0 mm 5 m/s 753 mm Hg 48%
23:00 +30°C° 0 mm 5 m/s 753 mm Hg 50%
Mostrare altro

Abbiamo bisogno del tuo consenso

Meteoprog e i nostri fornitori di servizi possono memorizzare e accedere a dati personali come cookie, identificatori di dispositivi o altre tecnologie simili sul tuo dispositivo e possono elaborare tali dati per personalizzare i contenuti e gli annunci, nonché fornire funzionalità dei social media e analizzarne il traffico.

  • Archiviare e/o accedere alle informazioni sul tuo dispositivo

    Cookie, identificatori di dispositivi o altre informazioni possono essere memorizzati o resi accessibili sul tuo dispositivo per le finalità sopra indicate.

  • Annunci e contenuti personalizzati, misurazione di annunci e contenuti, approfondimenti sul pubblico e sviluppo di prodotti

    Gli annunci e i contenuti possono essere personalizzati in base a un profilo. È possibile aggiungere più dati per personalizzare meglio annunci e contenuti. È possibile misurare il rendimento degli annunci e dei contenuti. È possibile ricavare informazioni sul pubblico che ha visto gli annunci e i contenuti. Tali dati possono essere utilizzati per sviluppare o migliorare l'esperienza, i sistemi e il software dell'utente.

Cliccando su “Accetto”, acconsenti all'uso di cookie, identificatori di dispositivo, web beacon o altre tecnologie simili. Puoi modificare le impostazioni nel browser del tuo dispositivo.

Per determinati scopi, è possibile fare affidamento su interessi legali, piuttosto che sul consenso. Puoi approfondire questo argomento consultando la nostra Informativa sulla privacy e sui cookie.